Appleton, MN

3:57 AM CST on November 20, 2019 (GMT -0600)
Appleton Municipal

Weather History for KAQP - August, 2019

Change the Weather History Date:

Tuesday, August 27, 2019

  Actual Average Record
Temperature  
Mean Temperature 63 °F -  
Max Temperature 69 °F 77 °F 95 °F (1999)
Min Temperature 57 °F 55 °F 48 °F (2005)
Degree Days  
Heating Degree Days 2    
Growing Degree Days 13 (Base 50)    
Moisture  
Dew Point 51 °F    
Average Humidity 68    
Maximum Humidity 88    
Minimum Humidity 40    
Precipitation  
Precipitation 0.00 in - - ()
Sea Level Pressure  
Sea Level Pressure 29.81 in    
Wind  
Wind Speed 7 mph (West)    
Max Wind Speed 26 mph    
Max Gust Speed 40 mph    
Visibility 10 miles    
Events Rain    
Averages and records for this station are not official NWS values.
T = Trace of Precipitation, MM = Missing Value Source: NWS Daily Summary

Daily Weather History Graph

Daily Weather History Graph

Search for Another Location

Airport or City:

Astronomy

Aug. 27, 2019 Rise Set
Actual Time 6:39 AM CDT 8:10 PM CDT
Civil Twilight 6:08 AM CDT 8:41 PM CDT
Nautical Twilight 5:31 AM CDT 9:18 PM CDT
Astronomical Twilight 4:50 AM CDT 9:58 PM CDT
Moon 2:54 AM CDT (8/27) 6:42 PM CDT (8/27)
Length of Visible Light 14h 32m
Length of Day
13h 31m
Waning Crescent, 11% of the Moon is Illuminated
Aug 27
Waning Crescent
Aug 30
New
Sep 5
First Quarter
Sep 13
Full
Sep 21
Last Quarter

Hourly Weather History & Observations

Time (CDT) Temp. Dew Point Humidity Pressure Visibility Wind Dir Wind Speed Gust Speed Precip Events Conditions
12:11 AM 59.0 °F 53.6 °F 82% 29.79 in 10.0 mi Calm Calm - N/A   Clear
12:30 AM 59.0 °F 53.6 °F 82% 29.78 in 10.0 mi Calm Calm - N/A   Clear
12:51 AM 57.2 °F 53.6 °F 88% 29.78 in 10.0 mi Calm Calm - N/A   Clear
1:10 AM 59.0 °F 53.6 °F 82% 29.78 in 10.0 mi Calm Calm - N/A   Clear
1:31 AM 59.0 °F 53.6 °F 82% 29.78 in 10.0 mi Calm Calm - N/A   Clear
1:50 AM 59.0 °F 53.6 °F 82% 29.78 in 10.0 mi Calm Calm - N/A   Clear
2:11 AM 57.2 °F 53.6 °F 88% 29.77 in 10.0 mi Calm Calm - N/A   Clear
2:31 AM 57.2 °F 53.6 °F 88% 29.77 in 10.0 mi Calm Calm - N/A   Clear
2:51 AM 57.2 °F 53.6 °F 88% 29.77 in 10.0 mi Calm Calm - N/A   Clear
3:10 AM 57.2 °F 53.6 °F 88% 29.78 in 10.0 mi Calm Calm - N/A   Clear
3:31 AM 57.2 °F 53.6 °F 88% 29.77 in 10.0 mi Calm Calm - N/A   Clear
3:51 AM 57.2 °F 51.8 °F 82% 29.76 in 10.0 mi Calm Calm - N/A   Clear
4:11 AM 57.2 °F 51.8 °F 82% 29.77 in 10.0 mi Calm Calm - N/A   Clear
4:30 AM 57.2 °F 51.8 °F 82% 29.77 in 10.0 mi Calm Calm - N/A   Clear
4:51 AM 57.2 °F 51.8 °F 82% 29.77 in 10.0 mi Calm Calm - N/A   Clear
5:10 AM 57.2 °F 51.8 °F 82% 29.77 in 10.0 mi Calm Calm - N/A   Clear
5:30 AM 57.2 °F 51.8 °F 82% 29.77 in 10.0 mi Calm Calm - N/A   Clear
5:50 AM 57.2 °F 51.8 °F 82% 29.78 in 10.0 mi Calm Calm - N/A   Clear
6:11 AM 57.2 °F 51.8 °F 82% 29.79 in 10.0 mi West 11.5 mph 16.1 mph N/A   Clear
6:31 AM 57.2 °F 51.8 °F 82% 29.78 in 10.0 mi Calm Calm - N/A   Clear
6:50 AM 57.2 °F 51.8 °F 82% 29.79 in 10.0 mi Calm Calm - N/A   Clear
7:11 AM 57.2 °F 51.8 °F 82% 29.79 in 10.0 mi Calm Calm - N/A   Clear
7:31 AM 57.2 °F 51.8 °F 82% 29.79 in 10.0 mi West 5.8 mph - N/A   Clear
7:50 AM 59.0 °F 51.8 °F 77% 29.79 in 10.0 mi West 10.4 mph 17.3 mph N/A   Clear
8:10 AM 59.0 °F 51.8 °F 77% 29.79 in 10.0 mi West 6.9 mph - N/A   Clear
8:30 AM 59.0 °F 51.8 °F 77% 29.80 in 10.0 mi West 5.8 mph - N/A   Clear
8:51 AM 60.8 °F 53.6 °F 77% 29.80 in 10.0 mi West 9.2 mph - N/A   Clear
9:11 AM 62.6 °F 51.8 °F 68% 29.80 in 10.0 mi West 11.5 mph 18.4 mph N/A   Clear
9:30 AM 64.4 °F 51.8 °F 64% 29.81 in 10.0 mi West 10.4 mph 16.1 mph N/A   Clear
9:50 AM 64.4 °F 51.8 °F 64% 29.81 in 10.0 mi West 17.3 mph - N/A   Clear
10:10 AM 66.2 °F 51.8 °F 60% 29.80 in 10.0 mi West 18.4 mph 26.5 mph N/A   Clear
10:51 AM 68.0 °F 48.2 °F 49% 29.81 in 10.0 mi WNW 18.4 mph 27.6 mph N/A   Clear
11:10 AM 68.0 °F 48.2 °F 49% 29.81 in 10.0 mi West 21.9 mph 28.8 mph N/A   Clear
11:31 AM 69.8 °F 46.4 °F 43% 29.81 in 10.0 mi West 26.5 mph 32.2 mph N/A   Clear
11:51 AM 69.8 °F 44.6 °F 40% 29.81 in 10.0 mi WNW 23.0 mph 34.5 mph N/A   Clear
12:11 PM 69.8 °F 46.4 °F 43% 29.81 in 10.0 mi WNW 16.1 mph 32.2 mph N/A   Scattered Clouds
12:31 PM 69.8 °F 46.4 °F 43% 29.81 in 10.0 mi WNW 23.0 mph 28.8 mph N/A   Scattered Clouds
12:51 PM 69.8 °F 44.6 °F 40% 29.80 in 10.0 mi WNW 24.2 mph 33.4 mph N/A   Scattered Clouds
1:11 PM 69.8 °F 44.6 °F 40% 29.80 in 10.0 mi West 26.5 mph 33.4 mph N/A   Scattered Clouds
1:30 PM 69.8 °F 46.4 °F 43% 29.80 in 10.0 mi West 21.9 mph 34.5 mph N/A   Scattered Clouds
1:51 PM 69.8 °F 46.4 °F 43% 29.80 in 10.0 mi West 23.0 mph 29.9 mph N/A   Scattered Clouds
2:11 PM 69.8 °F 46.4 °F 43% 29.80 in 10.0 mi West 20.7 mph 26.5 mph N/A   Scattered Clouds
2:30 PM 69.8 °F 46.4 °F 43% 29.80 in 10.0 mi West 23.0 mph 32.2 mph N/A   Scattered Clouds
2:51 PM 66.2 °F 46.4 °F 49% 29.80 in 10.0 mi West 26.5 mph 32.2 mph N/A   Mostly Cloudy
3:11 PM 66.2 °F 48.2 °F 52% 29.81 in 10.0 mi WNW 24.2 mph 34.5 mph N/A   Overcast
3:31 PM 66.2 °F 48.2 °F 52% 29.81 in 10.0 mi WNW 24.2 mph 40.3 mph N/A   Mostly Cloudy
3:50 PM 66.2 °F 48.2 °F 52% 29.82 in 10.0 mi WNW 21.9 mph 39.1 mph N/A   Scattered Clouds
4:11 PM 66.2 °F 48.2 °F 52% 29.82 in 10.0 mi WNW 23.0 mph 34.5 mph N/A   Scattered Clouds
4:31 PM 64.4 °F 48.2 °F 56% 29.82 in 10.0 mi WNW 23.0 mph 31.1 mph N/A   Mostly Cloudy
4:51 PM 64.4 °F 51.8 °F 64% 29.83 in 10.0 mi West 23.0 mph 29.9 mph N/A   Mostly Cloudy
5:10 PM 64.4 °F 51.8 °F 64% 29.83 in 10.0 mi WNW 20.7 mph 28.8 mph N/A   Mostly Cloudy
5:30 PM 64.4 °F 50.0 °F 59% 29.83 in 10.0 mi WNW 18.4 mph 33.4 mph N/A   Mostly Cloudy
5:50 PM 64.4 °F 51.8 °F 64% 29.83 in 10.0 mi West 21.9 mph 29.9 mph N/A   Scattered Clouds
6:10 PM 66.2 °F 51.8 °F 60% 29.84 in 10.0 mi WNW 18.4 mph 27.6 mph N/A   Scattered Clouds
6:30 PM 64.4 °F 51.8 °F 64% 29.83 in 10.0 mi West 20.7 mph 26.5 mph N/A   Scattered Clouds
6:51 PM 64.4 °F 51.8 °F 64% 29.84 in 10.0 mi West 15.0 mph 20.7 mph N/A   Scattered Clouds
7:10 PM 64.4 °F 51.8 °F 64% 29.83 in 10.0 mi West 20.7 mph 25.3 mph N/A   Clear
7:30 PM 64.4 °F 51.8 °F 64% 29.84 in 10.0 mi West 16.1 mph 19.6 mph N/A   Scattered Clouds
7:51 PM 62.6 °F 51.8 °F 68% 29.84 in 10.0 mi West 11.5 mph 16.1 mph N/A   Scattered Clouds
8:11 PM 62.6 °F 51.8 °F 68% 29.84 in 10.0 mi Calm Calm - N/A   Mostly Cloudy
8:31 PM 62.6 °F 51.8 °F 68% 29.84 in 10.0 mi Calm Calm - N/A   Scattered Clouds
8:51 PM 62.6 °F 51.8 °F 68% 29.84 in 10.0 mi West 11.5 mph - N/A   Mostly Cloudy
9:11 PM 62.6 °F 51.8 °F 68% 29.85 in 10.0 mi West 10.4 mph - N/A   Mostly Cloudy
9:30 PM 62.6 °F 51.8 °F 68% 29.85 in 10.0 mi West 8.1 mph - N/A   Overcast
9:51 PM 62.6 °F 51.8 °F 68% 29.87 in 10.0 mi NW 13.8 mph 20.7 mph N/A Rain Light Rain
10:11 PM 60.8 °F 53.6 °F 77% 29.87 in 10.0 mi WNW 4.6 mph - N/A Rain Rain
10:30 PM 60.8 °F 53.6 °F 77% 29.86 in 10.0 mi West 5.8 mph - N/A   Overcast
10:50 PM 59.0 °F 53.6 °F 82% 29.86 in 10.0 mi Calm Calm - N/A   Overcast
11:10 PM 59.0 °F 55.4 °F 88% 29.86 in 10.0 mi Calm Calm - N/A   Overcast
11:31 PM 60.8 °F 53.6 °F 77% 29.86 in 10.0 mi West 9.2 mph - N/A   Overcast
11:50 PM 60.8 °F 51.8 °F 72% 29.86 in 10.0 mi West 6.9 mph - N/A   Mostly Cloudy